FW6320 Weather Reports


Display with metric or nautical units.
time (UTC)temp
F
wind
direction
speed
MPH
gust
MPH
rain 1hr
in
rain 24hr
in
rain mn
in
humidity
%
barometer
mb
20260507115520 47 0 0.0 0.0 0.00 0.00 0.00 90 1019.8
20260507115018 47 0 0.0 0.0 0.00 0.00 0.00 90 1019.8
20260507114548 47 0 0.0 0.0 0.00 0.00 0.00 90 1019.8
20260507114019 47 0 0.0 0.0 0.00 0.00 0.00 89 1019.9
20260507113519 47 0 0.0 0.0 0.00 0.00 0.00 89 1019.9
20260507113039 47 0 0.0 0.0 0.00 0.00 0.00 89 1020.0
20260507112518 47 0 0.0 0.0 0.00 0.00 0.00 89 1019.9
20260507112018 47 0 0.0 0.0 0.00 0.00 0.00 89 1019.9
20260507111543 47 0 0.0 0.0 0.00 0.00 0.00 89 1019.8
20260507111020 48 0 0.0 0.0 0.00 0.00 0.00 89 1019.8
20260507110518 48 0 0.0 0.0 0.00 0.00 0.00 89 1019.7
20260507110038 48 0 0.0 0.0 0.00 0.00 0.00 89 1019.7
20260507105519 48 0 0.0 0.0 0.00 0.00 0.00 89 1019.7
20260507105019 48 0 0.0 0.0 0.00 0.00 0.00 89 1019.4
20260507104541 48 0 0.0 0.0 0.00 0.00 0.00 89 1019.7
20260507104020 48 0 0.0 0.0 0.00 0.00 0.00 89 1019.5
20260507103518 49 0 0.0 0.0 0.00 0.00 0.00 88 1019.4
20260507103042 49 0 0.0 0.0 0.00 0.00 0.00 88 1019.4
20260507102518 49 0 0.0 0.0 0.00 0.00 0.00 88 1019.4
20260507102019 49 0 0.0 0.0 0.00 0.00 0.00 88 1019.5
20260507101538 50 0 0.0 0.0 0.00 0.00 0.00 88 1019.3
20260507101023 50 0 0.0 0.0 0.00 0.00 0.00 88 1019.2
20260507100521 50 0 0.0 0.0 0.00 0.00 0.00 88 1019.0
20260507100036 50 0 0.0 0.0 0.00 0.00 0.00 88 1018.8
20260507095516 50 0 0.0 1.0 0.00 0.00 0.00 88 1018.6
20260507095020 50 0 0.0 3.0 0.00 0.00 0.00 88 1018.5
20260507094540 50 0 0.0 3.0 0.00 0.00 0.00 88 1018.4
20260507094019 50 344 1.0 3.0 0.00 0.00 0.00 88 1018.4
20260507093516 50 0 1.0 3.0 0.00 0.00 0.00 88 1018.5
20260507093045 51 0 0.0 3.0 0.00 0.00 0.00 87 1018.4
20260507092520 51 0 1.0 3.0 0.00 0.00 0.00 87 1018.4
20260507092019 51 347 1.0 5.0 0.00 0.00 0.00 87 1018.4
20260507091541 51 349 1.0 5.0 0.00 0.00 0.00 87 1018.5
20260507091019 51 344 1.0 6.0 0.00 0.00 0.00 87 1018.4
20260507090522 51 344 2.0 6.0 0.00 0.00 0.00 87 1018.3
20260507090042 51 336 2.0 6.0 0.00 0.00 0.00 87 1018.2
20260507085519 51 343 1.0 4.0 0.00 0.00 0.00 87 1018.2
20260507085018 51 338 1.0 4.0 0.00 0.00 0.00 87 1018.3
20260507084540 51 333 0.0 4.0 0.00 0.00 0.00 87 1018.3
20260507084019 51 333 1.0 4.0 0.00 0.00 0.00 87 1018.3
20260507083516 51 338 1.0 3.0 0.00 0.00 0.00 87 1018.3
20260507083040 51 339 0.0 3.0 0.00 0.00 0.00 87 1018.3
20260507082516 51 338 1.0 3.0 0.00 0.00 0.00 87 1018.4
20260507082020 52 333 1.0 3.0 0.00 0.00 0.00 87 1018.4
20260507081541 52 0 0.0 4.0 0.00 0.00 0.00 87 1018.5
20260507081020 52 330 0.0 4.0 0.00 0.00 0.00 87 1018.5
20260507080522 52 333 2.0 4.0 0.00 0.00 0.00 87 1018.2
20260507080035 52 342 1.0 4.0 0.00 0.00 0.00 87 1018.2
20260507075521 52 340 1.0 6.0 0.00 0.00 0.00 87 1018.0
20260507075020 52 341 2.0 6.0 0.00 0.00 0.00 87 1018.1
20260507074542 52 330 1.0 4.0 0.00 0.00 0.00 87 1017.9
20260507074019 52 313 1.0 5.0 0.00 0.00 0.00 87 1017.8
20260507073521 52 309 1.0 5.0 0.00 0.00 0.00 87 1018.0
20260507073035 52 350 1.0 5.0 0.00 0.00 0.00 87 1017.9
20260507072518 52 323 1.0 5.0 0.00 0.00 0.00 88 1018.0
20260507072015 52 320 0.0 4.0 0.00 0.00 0.00 87 1018.0
20260507071535 52 0 0.0 4.0 0.00 0.00 0.00 87 1018.1
20260507071016 52 329 0.0 4.0 0.00 0.00 0.00 87 1018.2
20260507070516 52 0 0.0 3.0 0.00 0.00 0.00 87 1018.1
20260507070036 52 0 1.0 4.0 0.00 0.00 0.00 87 1018.2
20260507065515 52 0 1.0 4.0 0.00 0.00 0.00 87 1018.1
20260507065015 52 329 0.0 3.0 0.00 0.00 0.00 87 1018.1
20260507064534 52 0 0.0 3.0 0.00 0.00 0.00 87 1018.2
20260507064019 52 0 0.0 3.0 0.00 0.00 0.00 87 1018.1
20260507063520 52 0 0.0 2.0 0.00 0.00 0.00 87 1018.1
20260507063033 51 0 0.0 2.0 0.00 0.00 0.00 86 1018.0
20260507062519 52 0 0.0 1.0 0.00 0.00 0.00 86 1018.1
20260507062018 52 0 0.0 0.0 0.00 0.00 0.00 85 1018.1
20260507061537 52 0 0.0 0.0 0.00 0.00 0.00 85 1018.0
20260507061018 52 0 0.0 0.0 0.00 0.00 0.00 85 1017.8
20260507060516 52 0 0.0 0.0 0.00 0.00 0.00 85 1017.8
20260507060036 52 0 0.0 0.0 0.00 0.00 0.00 85 1017.8
20260507055517 53 0 0.0 0.0 0.00 0.00 0.00 85 1017.7
20260507055017 53 0 0.0 0.0 0.00 0.00 0.00 85 1017.7
20260507054539 53 0 0.0 2.0 0.00 0.00 0.00 84 1017.6
20260507054020 53 0 0.0 2.0 0.00 0.00 0.00 84 1017.6
20260507053519 53 348 0.0 3.0 0.00 0.00 0.00 84 1017.4
20260507053032 53 0 0.0 3.0 0.00 0.00 0.00 84 1017.5
20260507052519 53 348 0.0 3.0 0.00 0.00 0.00 84 1017.4
20260507052018 53 348 0.0 3.0 0.00 0.00 0.00 84 1017.4
20260507051541 53 0 0.0 5.0 0.00 0.00 0.00 84 1017.4
20260507051016 54 348 1.0 5.0 0.00 0.00 0.00 84 1017.3
20260507050516 54 346 1.0 5.0 0.00 0.00 0.00 83 1017.2
20260507050040 54 355 1.0 4.0 0.00 0.00 0.00 83 1017.3
20260507045519 54 0 0.0 3.0 0.00 0.00 0.00 83 1017.4
20260507045016 54 0 1.0 5.0 0.00 0.00 0.00 82 1017.4
20260507044535 54 348 1.0 5.0 0.00 0.00 0.00 82 1017.4
20260507044015 54 344 1.0 3.0 0.00 0.00 0.00 81 1017.5
20260507043519 55 341 1.0 4.0 0.00 0.00 0.00 81 1017.7
20260507043032 55 340 1.0 5.0 0.00 0.00 0.00 81 1017.7
20260507042520 55 328 1.0 5.0 0.00 0.00 0.00 81 1017.8
20260507042019 55 0 1.0 5.0 0.00 0.00 0.00 80 1017.8
20260507041547 55 331 0.0 5.0 0.00 0.00 0.00 80 1017.8
20260507041018 55 0 1.0 5.0 0.00 0.00 0.00 79 1017.7
20260507040522 56 360 1.0 5.0 0.00 0.00 0.00 79 1017.6
20260507040042 56 5 2.0 6.0 0.00 0.00 0.00 79 1017.6
20260507035519 56 360 3.0 6.0 0.00 0.00 0.00 78 1017.5
20260507035020 56 16 2.0 6.0 0.00 0.00 0.00 78 1017.6
20260507034537 57 360 2.0 6.0 0.00 0.00 0.00 77 1017.6
20260507034017 57 5 2.0 5.0 0.00 0.00 0.00 77 1017.7
20260507033516 57 10 2.0 6.0 0.00 0.00 0.00 77 1017.7
20260507033037 57 355 1.0 6.0 0.00 0.00 0.00 76 1017.6
20260507032518 57 330 3.0 7.0 0.00 0.00 0.00 76 1017.5
20260507032015 58 338 2.0 9.0 0.00 0.00 0.00 76 1017.6
20260507031534 58 10 2.0 9.0 0.00 0.00 0.00 75 1017.6
20260507031016 58 333 3.0 10.0 0.00 0.00 0.00 75 1017.6
20260507030516 58 333 2.0 10.0 0.00 0.00 0.00 75 1017.6
20260507030035 58 348 3.0 10.0 0.00 0.00 0.00 75 1017.4
20260507025520 58 340 4.0 10.0 0.00 0.00 0.00 75 1017.3
20260507025015 58 360 4.0 10.0 0.00 0.00 0.00 75 1017.3
20260507024538 58 328 4.0 10.0 0.00 0.00 0.00 75 1017.3
20260507024021 59 355 3.0 10.0 0.00 0.00 0.00 75 1017.2
20260507023516 59 342 4.0 10.0 0.00 0.00 0.00 75 1017.0
20260507023037 59 321 5.0 9.0 0.00 0.00 0.00 75 1016.9
20260507022519 59 339 5.0 11.0 0.00 0.00 0.00 74 1016.8
20260507022016 59 340 4.0 11.0 0.00 0.00 0.00 74 1016.8
20260507021535 59 339 4.0 11.0 0.00 0.00 0.00 74 1016.9
20260507021016 59 348 4.0 11.0 0.00 0.00 0.00 74 1016.8
20260507020516 59 355 4.0 11.0 0.00 0.00 0.00 74 1016.8
20260507020035 59 12 5.0 12.0 0.00 0.00 0.00 73 1016.6
20260507015515 59 324 4.0 12.0 0.00 0.00 0.00 73 1016.4
20260507015019 59 5 4.0 12.0 0.00 0.00 0.00 74 1016.3
20260507014548 60 345 5.0 12.0 0.00 0.00 0.00 73 1016.1
20260507014016 60 306 5.0 11.0 0.00 0.00 0.00 73 1016.0
20260507013515 60 329 5.0 10.0 0.00 0.00 0.00 73 1015.8
20260507013051 60 315 3.0 13.0 0.00 0.00 0.00 73 1015.8
20260507012520 60 333 5.0 13.0 0.00 0.00 0.00 73 1015.6
20260507012020 60 342 5.0 13.0 0.00 0.00 0.00 73 1015.4
20260507011541 61 325 4.0 13.0 0.00 0.00 0.00 72 1015.4
20260507011016 61 333 4.0 13.0 0.00 0.00 0.00 72 1015.3
20260507010519 61 319 4.0 13.0 0.00 0.00 0.00 72 1015.2
20260507010035 61 316 4.0 13.0 0.00 0.00 0.00 72 1015.2
20260507005518 62 360 2.0 11.0 0.00 0.00 0.00 72 1015.1
20260507005018 62 327 5.0 11.0 0.00 0.00 0.00 72 1015.1
20260507004536 62 328 5.0 12.0 0.00 0.00 0.00 72 1015.0
20260507004016 62 342 3.0 12.0 0.00 0.00 0.00 72 1015.1
20260507003515 62 344 6.0 12.0 0.00 0.00 0.00 71 1014.9
20260507003037 62 355 4.0 14.0 0.00 0.00 0.00 71 1014.9
20260507002516 62 348 5.0 14.0 0.00 0.00 0.00 71 1014.9
20260507002019 62 330 4.0 11.0 0.00 0.00 0.00 71 1014.8
20260507001555 63 331 3.0 9.0 0.00 0.00 0.00 71 1014.7
20260507001018 63 321 2.0 9.0 0.00 0.00 0.00 71 1014.7
20260507000521 63 319 3.0 10.0 0.00 0.00 0.00 71 1014.5
20260507000040 63 331 2.0 10.0 0.00 0.00 0.00 71 1014.4
20260506235515 63 331 2.0 11.0 0.00 0.00 0.00 70 1014.3
20260506235016 63 314 5.0 11.0 0.00 0.00 0.00 70 1014.4
20260506234536 63 326 3.0 11.0 0.00 0.00 0.00 70 1014.4
20260506234019 64 329 4.0 11.0 0.00 0.00 0.00 69 1014.2
20260506233516 64 341 3.0 11.0 0.00 0.00 0.00 69 1014.2
20260506233043 64 331 3.0 11.0 0.00 0.00 0.00 70 1014.2
20260506232519 64 355 4.0 10.0 0.00 0.00 0.00 69 1014.2
20260506232015 64 346 3.0 9.0 0.00 0.00 0.00 69 1014.0
20260506231537 64 331 3.0 13.0 0.00 0.00 0.00 68 1014.1
20260506231019 65 327 5.0 14.0 0.00 0.00 0.00 68 1014.1
20260506230515 65 355 4.0 14.0 0.00 0.00 0.00 68 1014.0
20260506230043 66 336 5.0 11.0 0.00 0.00 0.00 67 1013.8
20260506225521 66 339 3.0 10.0 0.00 0.00 0.00 68 1013.8
20260506225020 66 343 4.0 10.0 0.00 0.00 0.00 67 1013.7
20260506224540 66 341 6.0 10.0 0.00 0.00 0.00 66 1013.7
20260506224016 67 320 4.0 9.0 0.00 0.00 0.00 67 1013.7
20260506223518 67 325 3.0 8.0 0.00 0.00 0.00 66 1013.6
20260506223038 67 355 2.0 9.0 0.00 0.00 0.00 67 1013.7
20260506222517 66 0 2.0 10.0 0.00 0.00 0.00 68 1013.7
20260506222016 66 337 5.0 11.0 0.00 0.00 0.00 67 1013.7
20260506221537 66 251 4.0 11.0 0.00 0.00 0.00 67 1013.6
20260506221019 66 290 3.0 12.0 0.00 0.00 0.00 66 1013.6
20260506220519 66 333 5.0 12.0 0.00 0.00 0.00 66 1013.6
20260506220036 66 326 4.0 12.0 0.00 0.00 0.00 67 1013.5
20260506215517 66 282 3.0 12.0 0.00 0.00 0.00 67 1013.6
20260506215015 67 317 4.0 12.0 0.00 0.00 0.00 67 1013.6
20260506214535 67 294 4.0 12.0 0.00 0.00 0.00 66 1013.5
20260506214016 67 327 4.0 10.0 0.00 0.00 0.00 67 1013.5
20260506213518 67 268 4.0 10.0 0.00 0.00 0.00 66 1013.5
20260506213036 67 319 3.0 11.0 0.00 0.00 0.00 67 1013.7
20260506212518 67 38 5.0 11.0 0.00 0.00 0.00 66 1013.8
20260506212018 67 336 3.0 10.0 0.00 0.00 0.00 67 1013.9
20260506211531 66 5 2.0 8.0 0.00 0.00 0.00 69 1014.0
20260506211018 66 317 3.0 8.0 0.00 0.00 0.00 68 1013.8
20260506210517 66 0 3.0 9.0 0.00 0.00 0.00 66 1013.6
20260506210041 66 322 3.0 9.0 0.00 0.00 0.00 67 1013.6
20260506205515 66 332 4.0 9.0 0.00 0.00 0.00 68 1013.8
20260506205018 66 292 2.0 9.0 0.00 0.00 0.00 67 1013.8
20260506204536 66 317 3.0 9.0 0.00 0.00 0.00 67 1013.8
20260506204018 66 333 2.0 9.0 0.00 0.00 0.00 69 1013.9
20260506203518 65 313 2.0 10.0 0.00 0.00 0.00 69 1013.9
20260506203042 65 344 3.0 10.0 0.00 0.00 0.00 67 1014.1
20260506202520 65 324 3.0 7.0 0.00 0.00 0.00 68 1014.2
20260506202020 65 344 1.0 11.0 0.00 0.00 0.00 69 1014.2
20260506201534 65 317 1.0 11.0 0.00 0.00 0.00 69 1014.3
20260506201018 65 0 4.0 11.0 0.00 0.00 0.00 67 1014.3
20260506200518 65 301 3.0 8.0 0.00 0.00 0.00 66 1014.4
20260506200042 65 331 2.0 6.0 0.00 0.00 0.00 70 1014.5
20260506195518 65 221 2.0 8.0 0.00 0.00 0.00 67 1014.5
20260506195018 65 327 3.0 8.0 0.00 0.00 0.00 67 1014.7
20260506194539 65 319 1.0 9.0 0.00 0.00 0.00 68 1014.7
20260506194018 65 343 4.0 9.0 0.00 0.00 0.00 69 1014.8
20260506193520 65 338 2.0 8.0 0.00 0.00 0.00 70 1014.7
20260506193037 64 0 3.0 10.0 0.00 0.00 0.00 67 1014.8
20260506192519 64 5 2.0 10.0 0.00 0.00 0.00 68 1014.7
20260506192019 64 13 4.0 12.0 0.00 0.00 0.00 69 1014.4
20260506191541 64 5 5.0 12.0 0.00 0.00 0.00 70 1014.5
20260506191019 64 346 5.0 11.0 0.00 0.00 0.00 69 1014.3
20260506190519 63 275 4.0 10.0 0.00 0.00 0.00 70 1014.0
20260506190040 63 277 4.0 10.0 0.00 0.00 0.00 69 1013.9
20260506185518 63 304 3.0 14.0 0.00 0.00 0.00 72 1014.1
20260506185020 62 271 4.0 14.0 0.00 0.00 0.00 70 1014.3
20260506184536 62 309 5.0 14.0 0.00 0.00 0.00 70 1014.3
20260506184019 62 355 4.0 9.0 0.00 0.00 0.00 70 1014.3
20260506183519 62 333 4.0 11.0 0.00 0.00 0.00 71 1014.3
20260506183037 61 355 5.0 11.0 0.00 0.00 0.00 72 1014.1
20260506182518 60 326 4.0 11.0 0.00 0.00 0.00 72 1014.4
20260506182018 60 323 4.0 13.0 0.00 0.00 0.00 73 1014.4
20260506181543 60 355 5.0 13.0 0.00 0.00 0.00 72 1014.3
20260506181018 60 351 8.0 13.0 0.00 0.00 0.00 73 1014.3
20260506180525 59 342 5.0 11.0 0.00 0.00 0.00 73 1014.5
20260506180048 59 322 4.0 11.0 0.00 0.00 0.00 73 1014.4
20260506175519 59 315 4.0 14.0 0.00 0.00 0.00 74 1014.4
20260506175018 58 346 5.0 14.0 0.00 0.00 0.00 74 1014.4
20260506174541 59 338 6.0 14.0 0.00 0.00 0.00 72 1014.7
20260506174019 59 279 3.0 16.0 0.00 0.00 0.00 74 1014.3
20260506173519 58 325 6.0 16.0 0.00 0.00 0.00 74 1014.6
20260506173037 58 355 7.0 15.0 0.00 0.00 0.00 74 1014.7
20260506172519 57 360 7.0 14.0 0.00 0.00 0.00 75 1014.8
20260506172021 56 355 7.0 14.0 0.00 0.00 0.00 77 1014.7
20260506171548 56 355 4.0 13.0 0.00 0.00 0.00 77 1014.8
20260506171019 55 294 4.0 13.0 0.00 0.00 0.00 78 1014.9
20260506170519 55 338 5.0 11.0 0.00 0.00 0.00 78 1015.0
20260506170037 54 14 5.0 12.0 0.00 0.00 0.00 79 1014.8
20260506165521 54 5 5.0 12.0 0.00 0.00 0.00 78 1015.1
20260506165019 54 314 5.0 11.0 0.00 0.00 0.00 78 1015.1
20260506164542 54 342 5.0 11.0 0.00 0.00 0.00 79 1014.9
20260506164018 54 344 6.0 11.0 0.00 0.00 0.00 79 1014.8
20260506163518 53 314 5.0 12.0 0.00 0.00 0.00 79 1014.8
20260506163047 53 323 4.0 12.0 0.00 0.00 0.00 79 1014.7
20260506162518 53 338 4.0 10.0 0.00 0.00 0.00 79 1014.8
20260506162018 53 325 2.0 11.0 0.00 0.00 0.00 79 1015.0
20260506161548 53 329 4.0 11.0 0.00 0.00 0.00 79 1014.8
20260506161021 53 360 4.0 11.0 0.00 0.00 0.00 79 1014.9
20260506160522 53 308 4.0 11.0 0.00 0.00 0.00 79 1015.0
20260506160036 54 254 2.0 9.0 0.00 0.00 0.00 81 1015.1
20260506155518 53 279 1.0 12.0 0.00 0.00 0.00 81 1014.9
20260506155018 53 278 3.0 12.0 0.00 0.00 0.00 80 1014.6
20260506154537 53 307 4.0 11.0 0.00 0.00 0.00 81 1014.8
20260506154019 53 331 5.0 10.0 0.00 0.00 0.00 82 1014.5
20260506153519 53 320 3.0 8.0 0.00 0.00 0.00 82 1015.0
20260506153043 52 327 3.0 8.0 0.00 0.00 0.00 82 1015.3
20260506152520 52 0 1.0 5.0 0.00 0.00 0.00 83 1016.1
20260506152019 52 308 1.0 3.0 0.00 0.00 0.00 83 1016.3
20260506151538 52 338 0.0 4.0 0.00 0.00 0.00 83 1016.9
20260506151020 52 0 0.0 4.0 0.00 0.00 0.00 83 1017.2
20260506150519 52 346 1.0 6.0 0.00 0.00 0.00 82 1016.7
20260506150037 52 336 1.0 9.0 0.00 0.00 0.00 82 1016.6
20260506145520 52 35 0.0 10.0 0.00 0.00 0.00 84 1016.2
20260506145019 52 360 3.0 10.0 0.00 0.00 0.00 84 1014.7
20260506144535 52 355 3.0 11.0 0.00 0.00 0.00 85 1014.4
20260506144018 51 330 4.0 11.0 0.00 0.00 0.00 85 1014.9
20260506143520 51 0 3.0 10.0 0.00 0.00 0.00 85 1014.9
20260506143034 51 360 4.0 9.0 0.00 0.00 0.00 86 1015.3
20260506142519 51 325 1.0 8.0 0.00 0.00 0.00 86 1015.2
20260506142016 51 355 2.0 8.0 0.00 0.00 0.00 86 1015.1
20260506141541 51 298 2.0 8.0 0.00 0.00 0.00 86 1015.0
20260506141020 51 340 2.0 6.0 0.00 0.00 0.00 86 1015.1
20260506140516 51 0 1.0 6.0 0.00 0.00 0.00 86 1015.2
20260506140045 51 0 1.0 5.0 0.00 0.00 0.00 86 1015.4
20260506135521 51 302 1.0 10.0 0.00 0.00 0.00 86 1015.3
20260506135027 51 310 1.0 10.0 0.00 0.00 0.00 86 1015.0
20260506134606 51 254 4.0 10.0 0.00 0.00 0.00 86 1014.7
20260506134020 51 355 2.0 9.0 0.00 0.00 0.00 86 1014.5
20260506133520 51 338 3.0 9.0 0.00 0.00 0.00 87 1014.1
20260506133035 51 333 4.0 10.0 0.00 0.00 0.00 87 1013.9
20260506132520 51 327 2.0 10.0 0.00 0.00 0.00 86 1014.0
20260506132020 51 318 2.0 9.0 0.00 0.00 0.00 86 1014.1
20260506131539 51 338 2.0 8.0 0.00 0.00 0.00 86 1014.2
20260506131017 51 328 2.0 6.0 0.00 0.00 0.00 86 1014.2
20260506130523 51 0 1.0 10.0 0.00 0.00 0.00 86 1014.1
20260506130041 51 321 1.0 10.0 0.00 0.00 0.00 86 1013.8
20260506125519 51 300 3.0 10.0 0.00 0.00 0.00 86 1013.9
20260506125016 51 312 4.0 9.0 0.00 0.00 0.00 86 1013.6
20260506124541 50 325 2.0 9.0 0.00 0.00 0.00 86 1013.9
20260506124016 50 315 3.0 9.0 0.00 0.00 0.00 86 1013.6
20260506123520 51 339 0.0 8.0 0.00 0.00 0.00 86 1013.7
20260506123045 51 0 1.0 6.0 0.00 0.00 0.00 86 1013.7
20260506122520 50 0 1.0 9.0 0.00 0.00 0.00 86 1013.7
20260506122020 50 325 2.0 9.0 0.00 0.00 0.00 86 1013.5
20260506121538 50 288 3.0 10.0 0.00 0.00 0.00 86 1013.5
20260506121020 50 310 2.0 10.0 0.00 0.00 0.00 86 1013.6
20260506120517 50 302 3.0 10.0 0.00 0.00 0.00 86 1013.5
20260506120034 50 0 3.0 9.0 0.00 0.00 0.00 86 1013.4